Weather History for Phoenix-Mesa Gateway Airport, AZ

Change the Weather History Date:

Monday, November 19, 2012

  Actual Average Record
Temperature  
Mean Temperature 64 °F -  
Max Temperature 78 °F 71 °F 87 °F (2006)
Min Temperature 50 °F 44 °F 33 °F (2000)
Degree Days  
Heating Degree Days 1    
Growing Degree Days 14 (Base 50)    
Moisture  
Dew Point 40 °F    
Average Humidity 51    
Maximum Humidity 72    
Minimum Humidity 23    
Precipitation  
Precipitation 0.00 in - - ()
Sea Level Pressure  
Sea Level Pressure 30.16 in    
Wind  
Wind Speed 3 mph (East)    
Max Wind Speed 8 mph    
Max Gust Speed -    
Visibility 12 miles    
Events      
Averages and records for this station are not official NWS values.
T = Trace of Precipitation, MM = Missing Value Source: NWS Daily Summary

Daily Weather History Graph

Daily Weather History Graph

Search for Another Location

Airport:

Trip Planner

Search our weather history database for the weather conditions in past years. The results will help you decide how hot, cold, wet, or windy it might be!

Date:

Astronomy

Nov. 19, 2012 Rise Set
Actual Time 7:01 AM MST 5:22 PM MST
Civil Twilight 6:35 AM MST 5:48 PM MST
Nautical Twilight 6:05 AM MST 6:18 PM MST
Astronomical Twilight 5:35 AM MST 6:48 PM MST
Moon 12:13 PM MST 11:44 PM MST
Length of Visible Light 11h 13m
Length of Day
10h 20m
Waxing Crescent, 41% of the Moon is Illuminated
Nov 19
Waxing Crescent
Nov 20
First Quarter
Nov 28
Full
Dec 6
Last Quarter
Dec 13
New

Hourly Weather History & Observations

Time (MST) Temp. Dew Point Humidity Pressure Visibility Wind Dir Wind Speed Gust Speed Precip Events Conditions
12:15 AM 55.4 °F 41.0 °F 58% 30.14 in 10.0 mi Calm Calm - N/A   Clear
12:35 AM 55.4 °F 42.8 °F 63% 30.14 in 10.0 mi Calm Calm - N/A   Clear
12:55 AM 51.8 °F 39.2 °F 62% 30.14 in 10.0 mi Calm Calm - N/A   Clear
1:15 AM 53.6 °F 41.0 °F 62% 30.14 in 10.0 mi Calm Calm - N/A   Clear
1:35 AM 51.8 °F 39.2 °F 62% 30.14 in 10.0 mi East 8.1 mph - N/A   Clear
1:55 AM 53.6 °F 41.0 °F 62% 30.14 in 10.0 mi East 8.1 mph - N/A   Clear
2:15 AM 55.4 °F 41.0 °F 58% 30.14 in 10.0 mi ESE 6.9 mph - N/A   Clear
2:35 AM 55.4 °F 42.8 °F 63% 30.14 in 10.0 mi ESE 6.9 mph - N/A   Clear
2:55 AM 51.8 °F 41.0 °F 67% 30.14 in 10.0 mi ESE 6.9 mph - N/A   Clear
3:15 AM 51.8 °F 42.8 °F 71% 30.14 in 10.0 mi ESE 5.8 mph - N/A   Clear
3:35 AM 51.8 °F 42.8 °F 71% 30.14 in 10.0 mi ESE 4.6 mph - N/A   Clear
3:55 AM 51.8 °F 42.8 °F 71% 30.14 in 10.0 mi Calm Calm - N/A   Clear
4:15 AM 51.8 °F 41.0 °F 67% 30.15 in 10.0 mi Calm Calm - N/A   Clear
4:35 AM 51.8 °F 42.8 °F 71% 30.15 in 10.0 mi East 4.6 mph - N/A   Clear
4:55 AM 50.0 °F 41.0 °F 71% 30.15 in 10.0 mi East 6.9 mph - N/A   Clear
5:15 AM 51.8 °F 42.8 °F 71% 30.15 in 10.0 mi East 6.9 mph - N/A   Clear
5:47 AM 55.4 °F 42.8 °F 63% 30.16 in 20.0 mi East 4.6 mph - N/A   Partly Cloudy
6:47 AM 53.6 °F 44.6 °F 72% 30.17 in 20.0 mi East 6.9 mph - N/A   Partly Cloudy
7:47 AM 53.6 °F 42.8 °F 67% 30.21 in 35.0 mi Variable 3.5 mph - N/A   Partly Cloudy
8:49 AM 57.2 °F 44.6 °F 63% 30.23 in 35.0 mi ESE 3.5 mph - N/A   Partly Cloudy
9:47 AM 64.4 °F 44.6 °F 49% 30.23 in 30.0 mi Calm Calm - N/A   Partly Cloudy
10:47 AM 68.0 °F 41.0 °F 37% 30.23 in 30.0 mi Calm Calm - N/A   Partly Cloudy
11:47 AM 73.4 °F 42.8 °F 33% 30.22 in 30.0 mi Calm Calm - N/A   Partly Cloudy
12:50 PM 73.4 °F 41.0 °F 31% 30.18 in 30.0 mi Calm Calm - N/A   Partly Cloudy
1:47 PM 77.0 °F 42.8 °F 29% 30.16 in 30.0 mi Calm Calm - N/A   Partly Cloudy
2:51 PM 78.8 °F 39.2 °F 24% 30.14 in 30.0 mi Variable 3.5 mph - N/A   Partly Cloudy
3:47 PM 78.8 °F 37.4 °F 23% 30.14 in 30.0 mi West 3.5 mph - N/A   Partly Cloudy
4:47 PM 77.0 °F 39.2 °F 26% 30.14 in 35.0 mi West 4.6 mph - N/A   Partly Cloudy
5:47 PM 73.4 °F 39.2 °F 29% 30.14 in 20.0 mi WSW 4.6 mph - N/A   Clear
6:47 PM 66.2 °F 41.0 °F 40% 30.16 in 20.0 mi WSW 3.5 mph - N/A   Clear
7:47 PM 62.6 °F 39.2 °F 42% 30.16 in 20.0 mi Calm Calm - N/A   Clear
7:55 PM 62.6 °F 37.4 °F 39% 30.17 in 10.0 mi Calm Calm - N/A   Clear
8:15 PM 60.8 °F 37.4 °F 42% 30.17 in 10.0 mi NE 5.8 mph - N/A   Clear
8:35 PM 60.8 °F 37.4 °F 42% 30.17 in 10.0 mi NE 4.6 mph - N/A   Clear
8:47 PM 60.8 °F 39.2 °F 45% 30.17 in 20.0 mi Variable 3.5 mph - N/A   Clear
8:55 PM 60.8 °F 37.4 °F 42% 30.18 in 10.0 mi NE 3.5 mph - N/A   Clear
9:15 PM 60.8 °F 39.2 °F 45% 30.18 in 10.0 mi NNE 4.6 mph - N/A   Clear
9:35 PM 59.0 °F 37.4 °F 45% 30.17 in 10.0 mi NE 4.6 mph - N/A   Clear
9:55 PM 57.2 °F 35.6 °F 44% 30.17 in 10.0 mi NE 6.9 mph - N/A   Clear
10:15 PM 60.8 °F 35.6 °F 39% 30.17 in 10.0 mi NE 6.9 mph - N/A   Clear
10:35 PM 60.8 °F 35.6 °F 39% 30.17 in 10.0 mi NE 4.6 mph - N/A   Clear
10:55 PM 60.8 °F 37.4 °F 42% 30.17 in 10.0 mi Calm Calm - N/A   Clear
11:15 PM 55.4 °F 41.0 °F 58% 30.17 in 10.0 mi Calm Calm - N/A   Clear
11:35 PM 55.4 °F 39.2 °F 54% 30.17 in 10.0 mi Calm Calm - N/A   Clear
11:55 PM 55.4 °F 39.2 °F 54% 30.16 in 10.0 mi Calm Calm - N/A   Clear